Flag for Canada Weather past 2 weeks in Brandon, Manitoba, Canada

Now
52 °F

Passing clouds.


Feels Like: 50 °F
Forecast: 46 / 74 °F
Wind: 6 mph from West

Location: Brandon

Current Time: Aug 3, 2015 at 8:17:52 AM

Latest Report: Aug 3, 2015 at 8:00 AM


Visibility: 15 mi

Pressure: 29.99 "Hg

Humidity: 94%

Dew point: 50 °F

Location of BrandonLocation

Historic Weather in Brandon — Graph

°F

Brandon temperature yesterday

Maximum temperature yesterday: 75 °F (at 3:00 PM)
Minimum temperature yesterday: 50 °F (at 11:00 PM)
Average temperature yesterday: 64 °F

Past Weeks' High & Low Weather Summary

 TemperatureHumidityPressure
High86 °F (Jul 26, 2:00 PM)100% (Jul 20, 6:00 AM)30.11 "Hg (Jul 20, 6:00 AM)
Low45 °F (Aug 3, 6:00 AM)34% (Jul 31, 3:00 PM)29.27 "Hg (Jul 28, 8:00 PM)
Average67 °F76%29.83 "Hg
* Reported Jul 19 7:00 AM — Aug 3 7:00 AM, Brandon, Weather by CustomWeather, © 2015

Note: Actual official high and low records may vary slightly from our data, if they occured in-between our weather recording intervals... More about our weather records

Advertising

Brandon weather history for previous 24 hours

 ConditionsComfort  
Time TempWeatherWind HumidityBarometerVisibility
7:00 AM
Mon, Aug 3
46 °FPassing clouds.6 mph93%29.98 "Hg15 mi
6:00 AM45 °FPassing clouds.7 mph93%29.98 "Hg15 mi
5:00 AM46 °FClear.9 mph93%29.97 "Hg15 mi
4:00 AM46 °FClear.9 mph100%29.96 "Hg15 mi
3:00 AM46 °FClear.8 mph100%29.95 "Hg15 mi
2:00 AM48 °FClear.9 mph94%29.95 "Hg15 mi
1:00 AM48 °FClear.8 mph94%29.94 "Hg15 mi
12:00 AM48 °FClear.7 mph94%29.93 "Hg15 mi
11:00 PM
Sun, Aug 2
50 °FClear.7 mph94%29.93 "Hg15 mi
10:00 PM55 °FSunny.7 mph82%29.92 "Hg15 mi
9:00 PM63 °FSunny.9 mph68%29.90 "Hg15 mi
8:00 PM70 °FSunny.14 mph46%29.89 "Hg15 mi
7:00 PM73 °FSunny.20 mph38%29.89 "Hg15 mi
6:00 PM73 °FSunny.22 mph38%29.89 "Hg15 mi
5:00 PM75 °FSunny.18 mph36%29.89 "Hg15 mi
4:00 PM75 °FPassing clouds.22 mph36%29.89 "Hg15 mi
3:00 PM75 °FPassing clouds.20 mph34%29.89 "Hg15 mi
2:00 PM73 °FPassing clouds.24 mph36%29.89 "Hg15 mi
1:00 PM73 °FPassing clouds.21 mph36%29.90 "Hg15 mi
12:00 PM73 °FScattered clouds.23 mph38%29.90 "Hg15 mi
11:00 AM70 °FScattered clouds.20 mph46%29.89 "Hg15 mi
10:00 AM70 °FPassing clouds.12 mph46%29.89 "Hg15 mi
9:00 AM64 °FPassing clouds.8 mph73%29.88 "Hg15 mi
8:00 AM59 °FSunny.7 mph88%29.87 "Hg15 mi
Weather by CustomWeather, © 2015

See weather overviewHow to use our weather pages